KSLV-II R/B, 52896

Orbit data source: Space-Track

KSLV-II R/B, 52896 is space debris in SSO originally from a launch on Tue, 21 Jun 2022 UTC launched from the Naro Space Center, South Korea (NSC). Debris objects in space refer to the collection of defunct objects orbiting the Earth. Examples of debris include non-operational satellites, rocket bodies, and fragments generated from explosions, collisions, or faulty payload assembly.

Loading next visibility...
Identifier
52896, 2022-065C
Orbit
SSO
Last TLE update
12 hours ago
Origin
Manufacturer
KARI
Mission
Spacecraft
Bus & Motor
Unknown
Mass
1,250 kg wet, 1,250 kg dry
Launch date (UTC)
2022-06-21 (3 years ago)
Launch vehicle
Unknown
Launch site
Naro Space Center, South Korea (NSC)
Object type
Payload
Rocket body
Debris
Shape & HBR
Cyl, 3.6 m
Radar Cross Section
3.600 m², Large (>1 m²)

Expand to show TLE details & history

TLE from 12 hours ago
0 KSLV-II R/B
1 52896U 22065C   25187.93909622  .00000412  00000-0  86188-4 0  9990
2 52896  98.2211 341.9349 0016533 192.7507 167.3279 14.64860115162591
Epoch: 2025-07-06T22:32Z
TLE epoch observation values (Epoch: 2025-07-06T22:32:17.913Z)
Latitude
-0.0001°
Longitude
78.70468°
Altitude
691.9 km
Speed
7.504 km/s
True Right ascension
22h 47m 44s
True Declination
0° 00' 00"
Sunlit
Object was in full shadow at epoch
Visualization orbit readout
Latitude
78.872°
Longitude
-53.8659°
Altitude
691.469 km
Speed
7.517 km/s
Apparent Right ascension
11h 12m 09s
Apparent Declination
25° 57' 26"
Sunlit
Object is in daylight
Visualization observer readout
Local Sidereal Time
22:29:38
Azimuth
349.59° N
Elevation
-23.386°
Doppler factor
1
Orbital elements
Apogee altitude
686.26 km
Perigee altitude
662.94 km
Semi-major axis
7,052.737 km
Eccentricity
0.00165
Inclination
98.2211°
RAAN
341.9349°
Arg. of periapsis
192.7507°
True anomaly
Unknown
Mean anomaly
167.3279°
Eccentric anomaly
Unknown
Mean motion
3.66443 °/min
Orbital period
98.24 mins
BSTAR
0.000086188
Loading maneuver chart data...
Loading SW <> Apogee altitude chart data...
Loading historical data...
Loading historical data...
Loading historical data...
Loading historical data...
Loading historical data...
Loading historical data...
Loading historical data...

KSLV-II R/B Visibility forecast

Observer location: undefined°, undefined°

Span
Click to sort rows by Start time (UTC) header in descending order
Start Az.
Max El. time (UTC)
Max El. Az.
Max El.
End time (UTC)
End Az.
4 mins2025-07-07 22:06:31.608Z69.332° E2025-07-07 22:07:31.608Z84.722° E16.491°2025-07-07 22:10:31.608Z129.456° SE
7 mins2025-07-07 23:42:31.608Z350.904° N2025-07-07 23:45:31.608Z285.263° WNW34.113°2025-07-07 23:49:31.608Z218.908° SW
4 mins2025-07-08 09:08:31.608Z90.119° ESE2025-07-08 09:10:31.608Z58.647° ENE17.079°2025-07-08 09:12:31.608Z30.197° NE
|